| time (UTC) | temp F | wind direction | speed MPH | gust MPH | rain 1hr in | rain 24hr in | rain mn in | humidity % | barometer mb |
| 20260504081032 | 54 | 232 | 5.0 | 10.0 | 0.00 | 0.00 | 0.00 | 48 | 997.9 |
| 20260504080530 | 54 | 207 | 4.0 | 10.0 | 0.00 | 0.00 | 0.00 | 49 | 998.0 |
| 20260504050534 | 48 | 205 | 3.0 | 5.0 | 0.00 | 0.00 | 0.00 | 61 | 1001.1 |
| 20260504045531 | 48 | 194 | 2.0 | 5.0 | 0.00 | 0.00 | 0.00 | 61 | 1001.3 |
| 20260504045032 | 48 | 194 | 2.0 | 5.0 | 0.00 | 0.00 | 0.00 | 61 | 1001.5 |
| 20260504044544 | 48 | 192 | 2.0 | 5.0 | 0.00 | 0.00 | 0.00 | 62 | 1001.5 |
| 20260504044032 | 48 | 190 | 2.0 | 4.0 | 0.00 | 0.00 | 0.00 | 62 | 1001.7 |
| 20260504043531 | 48 | 190 | 1.0 | 4.0 | 0.00 | 0.00 | 0.00 | 61 | 1001.7 |
| 20260504043102 | 49 | 196 | 2.0 | 4.0 | 0.00 | 0.00 | 0.00 | 60 | 1001.8 |
| 20260504042531 | 49 | 209 | 2.0 | 4.0 | 0.00 | 0.00 | 0.00 | 59 | 1001.9 |
| 20260504042031 | 49 | 204 | 2.0 | 4.0 | 0.00 | 0.00 | 0.00 | 59 | 1002.0 |
| 20260504041538 | 49 | 211 | 2.0 | 3.0 | 0.00 | 0.00 | 0.00 | 58 | 1002.0 |
| 20260504041031 | 49 | 192 | 1.0 | 3.0 | 0.00 | 0.00 | 0.00 | 57 | 1002.1 |
| 20260504040531 | 49 | 192 | 1.0 | 3.0 | 0.00 | 0.00 | 0.00 | 57 | 1002.2 |
| 20260504040042 | 49 | 0 | 1.0 | 3.0 | 0.00 | 0.00 | 0.00 | 57 | 1002.3 |
| 20260504035534 | 49 | 192 | 1.0 | 3.0 | 0.00 | 0.00 | 0.00 | 56 | 1002.4 |
| 20260504035034 | 50 | 192 | 1.0 | 5.0 | 0.00 | 0.00 | 0.00 | 56 | 1002.5 |
| 20260504034550 | 50 | 183 | 1.0 | 5.0 | 0.00 | 0.00 | 0.00 | 55 | 1002.6 |
| 20260504034034 | 51 | 177 | 1.0 | 3.0 | 0.00 | 0.00 | 0.00 | 54 | 1002.7 |
| 20260504033534 | 51 | 193 | 1.0 | 3.0 | 0.00 | 0.00 | 0.00 | 53 | 1002.7 |
| 20260504033043 | 51 | 193 | 1.0 | 3.0 | 0.00 | 0.00 | 0.00 | 53 | 1002.8 |
| 20260504032533 | 51 | 193 | 1.0 | 4.0 | 0.00 | 0.00 | 0.00 | 53 | 1002.8 |
| 20260504032031 | 51 | 193 | 1.0 | 5.0 | 0.00 | 0.00 | 0.00 | 55 | 1002.8 |
| 20260504031549 | 52 | 199 | 2.0 | 5.0 | 0.00 | 0.00 | 0.00 | 54 | 1002.9 |
| 20260504031032 | 52 | 181 | 2.0 | 4.0 | 0.00 | 0.00 | 0.00 | 54 | 1002.9 |
| 20260504030531 | 53 | 177 | 2.0 | 3.0 | 0.00 | 0.00 | 0.00 | 52 | 1003.0 |
| 20260504030055 | 52 | 207 | 2.0 | 3.0 | 0.00 | 0.00 | 0.00 | 51 | 1003.1 |
| 20260504025531 | 53 | 207 | 1.0 | 3.0 | 0.00 | 0.00 | 0.00 | 49 | 1003.1 |
| 20260504025031 | 53 | 207 | 2.0 | 4.0 | 0.00 | 0.00 | 0.00 | 48 | 1003.1 |
| 20260504024539 | 54 | 212 | 2.0 | 4.0 | 0.00 | 0.00 | 0.00 | 48 | 1003.2 |
| 20260504024030 | 54 | 207 | 2.0 | 4.0 | 0.00 | 0.00 | 0.00 | 48 | 1003.2 |
| 20260504023531 | 54 | 204 | 2.0 | 3.0 | 0.00 | 0.00 | 0.00 | 47 | 1003.2 |
| 20260504023041 | 54 | 213 | 2.0 | 3.0 | 0.00 | 0.00 | 0.00 | 46 | 1003.2 |
| 20260504022530 | 55 | 206 | 2.0 | 3.0 | 0.00 | 0.00 | 0.00 | 45 | 1003.2 |
| 20260504022032 | 55 | 206 | 2.0 | 3.0 | 0.00 | 0.00 | 0.00 | 46 | 1003.2 |
| 20260504021545 | 56 | 206 | 1.0 | 3.0 | 0.00 | 0.00 | 0.00 | 43 | 1003.2 |
| 20260504021031 | 57 | 206 | 1.0 | 3.0 | 0.00 | 0.00 | 0.00 | 42 | 1003.1 |
| 20260504020531 | 57 | 205 | 2.0 | 3.0 | 0.00 | 0.00 | 0.00 | 42 | 1003.1 |
| 20260504020043 | 58 | 205 | 2.0 | 3.0 | 0.00 | 0.00 | 0.00 | 39 | 1003.2 |
| 20260504015531 | 58 | 235 | 1.0 | 3.0 | 0.00 | 0.00 | 0.00 | 39 | 1003.2 |
| 20260504015033 | 59 | 234 | 2.0 | 4.0 | 0.00 | 0.00 | 0.00 | 36 | 1003.2 |
| 20260504014543 | 60 | 235 | 2.0 | 4.0 | 0.00 | 0.00 | 0.00 | 36 | 1003.3 |
| 20260504014030 | 60 | 249 | 2.0 | 7.0 | 0.00 | 0.00 | 0.00 | 35 | 1003.3 |
| 20260504013532 | 61 | 266 | 2.0 | 7.0 | 0.00 | 0.00 | 0.00 | 33 | 1003.4 |
| 20260504013044 | 62 | 264 | 3.0 | 7.0 | 0.00 | 0.00 | 0.00 | 33 | 1003.4 |
| 20260504012532 | 63 | 241 | 2.0 | 6.0 | 0.00 | 0.00 | 0.00 | 32 | 1003.4 |
| 20260504012032 | 63 | 263 | 2.0 | 6.0 | 0.00 | 0.00 | 0.00 | 31 | 1003.5 |
| 20260504011538 | 64 | 277 | 2.0 | 8.0 | 0.00 | 0.00 | 0.00 | 30 | 1003.4 |
| 20260504011035 | 65 | 249 | 3.0 | 9.0 | 0.00 | 0.00 | 0.00 | 29 | 1003.4 |
| 20260504010530 | 65 | 258 | 4.0 | 11.0 | 0.00 | 0.00 | 0.00 | 29 | 1003.4 |
| 20260504010056 | 65 | 235 | 4.0 | 11.0 | 0.00 | 0.00 | 0.00 | 29 | 1003.4 |
| 20260504005530 | 65 | 292 | 7.0 | 11.0 | 0.00 | 0.00 | 0.00 | 28 | 1003.6 |
| 20260504005031 | 66 | 283 | 3.0 | 9.0 | 0.00 | 0.00 | 0.00 | 30 | 1003.5 |
| 20260504004543 | 66 | 269 | 4.0 | 9.0 | 0.00 | 0.00 | 0.00 | 28 | 1003.5 |
| 20260504004032 | 66 | 248 | 5.0 | 9.0 | 0.00 | 0.00 | 0.00 | 28 | 1003.5 |
| 20260504003532 | 66 | 248 | 4.0 | 13.0 | 0.00 | 0.00 | 0.00 | 28 | 1003.5 |
| 20260504003035 | 66 | 271 | 4.0 | 13.0 | 0.00 | 0.00 | 0.00 | 27 | 1003.5 |
| 20260504002530 | 66 | 240 | 6.0 | 12.0 | 0.00 | 0.00 | 0.00 | 27 | 1003.6 |
| 20260504002034 | 67 | 263 | 5.0 | 12.0 | 0.00 | 0.00 | 0.00 | 27 | 1003.6 |
| 20260504001543 | 67 | 280 | 7.0 | 12.0 | 0.00 | 0.00 | 0.00 | 27 | 1003.6 |
| 20260504001030 | 67 | 239 | 7.0 | 12.0 | 0.00 | 0.00 | 0.00 | 27 | 1003.6 |
| 20260504000533 | 67 | 262 | 5.0 | 11.0 | 0.00 | 0.00 | 0.00 | 26 | 1003.7 |
| 20260504000040 | 68 | 271 | 4.0 | 12.0 | 0.00 | 0.00 | 0.00 | 26 | 1003.6 |
| 20260503235531 | 68 | 277 | 6.0 | 12.0 | 0.00 | 0.00 | 0.00 | 25 | 1003.7 |
| 20260503235032 | 68 | 272 | 5.0 | 12.0 | 0.00 | 0.00 | 0.00 | 25 | 1003.7 |
| 20260503234541 | 68 | 347 | 6.0 | 12.0 | 0.00 | 0.00 | 0.00 | 24 | 1003.6 |
| 20260503234032 | 68 | 306 | 7.0 | 13.0 | 0.00 | 0.00 | 0.00 | 24 | 1003.6 |
| 20260503233532 | 69 | 248 | 6.0 | 13.0 | 0.00 | 0.00 | 0.00 | 25 | 1003.8 |
| 20260503233038 | 69 | 327 | 6.0 | 15.0 | 0.00 | 0.00 | 0.00 | 24 | 1003.8 |
| 20260503232537 | 69 | 280 | 6.0 | 15.0 | 0.00 | 0.00 | 0.00 | 24 | 1003.9 |
| 20260503232031 | 69 | 345 | 7.0 | 15.0 | 0.00 | 0.00 | 0.00 | 23 | 1004.0 |
| 20260503231543 | 69 | 11 | 7.0 | 14.0 | 0.00 | 0.00 | 0.00 | 24 | 1004.0 |
| 20260503231036 | 69 | 311 | 7.0 | 15.0 | 0.00 | 0.00 | 0.00 | 24 | 1004.1 |
| 20260503230532 | 69 | 343 | 9.0 | 15.0 | 0.00 | 0.00 | 0.00 | 25 | 1004.1 |
| 20260503230058 | 69 | 340 | 7.0 | 14.0 | 0.00 | 0.00 | 0.00 | 26 | 1004.0 |
| 20260503225531 | 69 | 311 | 4.0 | 14.0 | 0.00 | 0.00 | 0.00 | 26 | 1004.1 |
| 20260503225032 | 69 | 278 | 7.0 | 18.0 | 0.00 | 0.00 | 0.00 | 25 | 1004.2 |
| 20260503224543 | 69 | 312 | 5.0 | 18.0 | 0.00 | 0.00 | 0.00 | 25 | 1004.3 |
| 20260503224036 | 69 | 300 | 8.0 | 15.0 | 0.00 | 0.00 | 0.00 | 25 | 1004.2 |
| 20260503223533 | 69 | 352 | 4.0 | 14.0 | 0.00 | 0.00 | 0.00 | 26 | 1004.3 |
| 20260503223051 | 70 | 296 | 8.0 | 14.0 | 0.00 | 0.00 | 0.00 | 25 | 1004.4 |
| 20260503222531 | 69 | 298 | 6.0 | 15.0 | 0.00 | 0.00 | 0.00 | 27 | 1004.3 |
| 20260503222031 | 69 | 290 | 7.0 | 17.0 | 0.00 | 0.00 | 0.00 | 26 | 1004.3 |
| 20260503221551 | 69 | 268 | 8.0 | 20.0 | 0.00 | 0.00 | 0.00 | 25 | 1004.4 |
| 20260503221033 | 70 | 298 | 9.0 | 20.0 | 0.00 | 0.00 | 0.00 | 26 | 1004.4 |
| 20260503220533 | 69 | 242 | 7.0 | 19.0 | 0.00 | 0.00 | 0.00 | 27 | 1004.3 |
| 20260503220051 | 70 | 236 | 7.0 | 19.0 | 0.00 | 0.00 | 0.00 | 27 | 1004.4 |
| 20260503215532 | 69 | 304 | 8.0 | 19.0 | 0.00 | 0.00 | 0.00 | 27 | 1004.4 |
| 20260503215032 | 69 | 327 | 6.0 | 19.0 | 0.00 | 0.00 | 0.00 | 27 | 1004.4 |
| 20260503214554 | 70 | 290 | 12.0 | 19.0 | 0.00 | 0.00 | 0.00 | 26 | 1004.5 |
| 20260503214033 | 70 | 315 | 5.0 | 15.0 | 0.00 | 0.00 | 0.00 | 28 | 1004.5 |
| 20260503213533 | 69 | 323 | 9.0 | 15.0 | 0.00 | 0.00 | 0.00 | 26 | 1004.5 |
| 20260503213040 | 70 | 343 | 9.0 | 15.0 | 0.00 | 0.00 | 0.00 | 26 | 1004.6 |
| 20260503212532 | 70 | 346 | 7.0 | 19.0 | 0.00 | 0.00 | 0.00 | 27 | 1004.6 |
| 20260503212032 | 69 | 329 | 5.0 | 19.0 | 0.00 | 0.00 | 0.00 | 27 | 1004.6 |
| 20260503211541 | 70 | 301 | 8.0 | 17.0 | 0.00 | 0.00 | 0.00 | 27 | 1004.6 |
| 20260503211031 | 69 | 11 | 6.0 | 19.0 | 0.00 | 0.00 | 0.00 | 29 | 1004.6 |
| 20260503210531 | 69 | 320 | 8.0 | 19.0 | 0.00 | 0.00 | 0.00 | 27 | 1004.6 |
| 20260503210047 | 70 | 280 | 8.0 | 19.0 | 0.00 | 0.00 | 0.00 | 29 | 1004.6 |
| 20260503205531 | 70 | 278 | 10.0 | 19.0 | 0.00 | 0.00 | 0.00 | 29 | 1004.6 |
| 20260503205032 | 70 | 269 | 5.0 | 16.0 | 0.00 | 0.00 | 0.00 | 29 | 1004.7 |
| 20260503204547 | 69 | 298 | 6.0 | 16.0 | 0.00 | 0.00 | 0.00 | 29 | 1004.8 |
| 20260503204031 | 70 | 308 | 9.0 | 16.0 | 0.00 | 0.00 | 0.00 | 28 | 1004.8 |
| 20260503203533 | 70 | 306 | 5.0 | 12.0 | 0.00 | 0.00 | 0.00 | 28 | 1004.8 |
| 20260503203047 | 70 | 352 | 5.0 | 21.0 | 0.00 | 0.00 | 0.00 | 28 | 1005.0 |
| 20260503202531 | 70 | 285 | 10.0 | 21.0 | 0.00 | 0.00 | 0.00 | 28 | 1004.9 |
| 20260503202036 | 70 | 350 | 8.0 | 16.0 | 0.00 | 0.00 | 0.00 | 27 | 1004.9 |
| 20260503201541 | 69 | 319 | 10.0 | 20.0 | 0.00 | 0.00 | 0.00 | 28 | 1005.0 |
| 20260503201031 | 69 | 333 | 6.0 | 20.0 | 0.00 | 0.00 | 0.00 | 30 | 1005.2 |
| 20260503200532 | 69 | 306 | 10.0 | 20.0 | 0.00 | 0.00 | 0.00 | 27 | 1005.3 |
| 20260503200044 | 69 | 273 | 9.0 | 22.0 | 0.00 | 0.00 | 0.00 | 28 | 1005.3 |
| 20260503195531 | 69 | 340 | 12.0 | 22.0 | 0.00 | 0.00 | 0.00 | 26 | 1005.2 |
| 20260503195032 | 69 | 19 | 12.0 | 22.0 | 0.00 | 0.00 | 0.00 | 26 | 1005.3 |
| 20260503194546 | 69 | 10 | 13.0 | 20.0 | 0.00 | 0.00 | 0.00 | 27 | 1005.4 |
| 20260503194032 | 69 | 302 | 4.0 | 22.0 | 0.00 | 0.00 | 0.00 | 29 | 1005.3 |
| 20260503193532 | 69 | 325 | 13.0 | 22.0 | 0.00 | 0.00 | 0.00 | 27 | 1005.5 |
| 20260503193039 | 70 | 349 | 12.0 | 22.0 | 0.00 | 0.00 | 0.00 | 27 | 1005.3 |
| 20260503192532 | 69 | 319 | 9.0 | 19.0 | 0.00 | 0.00 | 0.00 | 30 | 1005.3 |
| 20260503192034 | 69 | 341 | 9.0 | 20.0 | 0.00 | 0.00 | 0.00 | 30 | 1005.4 |
| 20260503191538 | 69 | 339 | 12.0 | 20.0 | 0.00 | 0.00 | 0.00 | 29 | 1005.4 |
| 20260503191034 | 69 | 302 | 7.0 | 16.0 | 0.00 | 0.00 | 0.00 | 33 | 1005.4 |
| 20260503190533 | 69 | 298 | 6.0 | 15.0 | 0.00 | 0.00 | 0.00 | 33 | 1005.3 |
| 20260503190043 | 69 | 304 | 6.0 | 21.0 | 0.00 | 0.00 | 0.00 | 34 | 1005.4 |
| 20260503185532 | 69 | 5 | 12.0 | 21.0 | 0.00 | 0.00 | 0.00 | 31 | 1005.4 |
| 20260503185031 | 69 | 337 | 7.0 | 21.0 | 0.00 | 0.00 | 0.00 | 36 | 1005.5 |
| 20260503184536 | 69 | 5 | 13.0 | 21.0 | 0.00 | 0.00 | 0.00 | 32 | 1005.4 |
| 20260503184032 | 70 | 302 | 7.0 | 17.0 | 0.00 | 0.00 | 0.00 | 36 | 1005.4 |
| 20260503183533 | 68 | 24 | 6.0 | 17.0 | 0.00 | 0.00 | 0.00 | 34 | 1005.4 |
| 20260503183042 | 69 | 352 | 10.0 | 19.0 | 0.00 | 0.00 | 0.00 | 33 | 1005.5 |
| 20260503182531 | 68 | 252 | 9.0 | 19.0 | 0.00 | 0.00 | 0.00 | 34 | 1005.4 |
| 20260503182032 | 68 | 292 | 9.0 | 19.0 | 0.00 | 0.00 | 0.00 | 33 | 1005.5 |
| 20260503181557 | 69 | 317 | 6.0 | 19.0 | 0.00 | 0.00 | 0.00 | 34 | 1005.6 |
| 20260503181031 | 69 | 32 | 10.0 | 21.0 | 0.00 | 0.00 | 0.00 | 35 | 1005.6 |
| 20260503180533 | 68 | 23 | 10.0 | 21.0 | 0.00 | 0.00 | 0.00 | 35 | 1005.6 |
| 20260503180046 | 68 | 309 | 6.0 | 21.0 | 0.00 | 0.00 | 0.00 | 40 | 1005.6 |
| 20260503175533 | 68 | 267 | 7.0 | 21.0 | 0.00 | 0.00 | 0.00 | 38 | 1005.7 |
| 20260503175031 | 68 | 302 | 10.0 | 19.0 | 0.00 | 0.00 | 0.00 | 38 | 1005.6 |
| 20260503174541 | 68 | 352 | 5.0 | 23.0 | 0.00 | 0.00 | 0.00 | 39 | 1005.6 |
| 20260503174031 | 67 | 293 | 10.0 | 23.0 | 0.00 | 0.00 | 0.00 | 38 | 1005.7 |
| 20260503173531 | 68 | 291 | 10.0 | 16.0 | 0.00 | 0.00 | 0.00 | 40 | 1005.7 |
| 20260503173035 | 68 | 31 | 7.0 | 16.0 | 0.00 | 0.00 | 0.00 | 38 | 1005.7 |
| 20260503172535 | 67 | 291 | 8.0 | 20.0 | 0.00 | 0.00 | 0.00 | 38 | 1005.7 |
| 20260503172032 | 68 | 24 | 8.0 | 20.0 | 0.00 | 0.00 | 0.00 | 39 | 1005.8 |
| 20260503171543 | 67 | 5 | 8.0 | 21.0 | 0.00 | 0.00 | 0.00 | 36 | 1005.9 |
| 20260503171031 | 67 | 339 | 7.0 | 21.0 | 0.00 | 0.00 | 0.00 | 37 | 1005.9 |
| 20260503170532 | 67 | 341 | 10.0 | 21.0 | 0.00 | 0.00 | 0.00 | 39 | 1005.9 |
| 20260503150529 | 63 | 284 | 9.0 | 21.0 | 0.00 | 0.00 | 0.00 | 44 | 1005.4 |
| 20260503131033 | 56 | 309 | 3.0 | 12.0 | 0.00 | 0.00 | 0.00 | 50 | 1004.7 |
| 20260503130532 | 56 | 352 | 3.0 | 12.0 | 0.00 | 0.00 | 0.00 | 51 | 1004.5 |
| 20260503110532 | 50 | 200 | 4.0 | 8.0 | 0.00 | 0.00 | 0.00 | 55 | 1003.6 |
| 20260503081542 | 57 | 188 | 5.0 | 13.0 | 0.00 | 0.00 | 0.00 | 45 | 1004.6 |